Home   Weather   Bangor   Past weeks

Flag for United Kingdom Past Weather in Bangor, Wales, United Kingdom — Yesterday and Last 2 Weeks

Now
52 °F

Rain. Overcast.


Feels Like: 45 °F
Forecast: N/A
Wind: 26 mph from Southwest

Location: Capel Curig

Current Time: Dec 7, 2016 at 4:51:02 pm

Latest Report: Dec 7, 2016 at 4:00 pm


Visibility: 1 mi

Pressure: 30.09 "Hg

Humidity: 97%

Dew Point: 51 °F

Location of BangorLocation

Past Weather in Bangor — Graph

°F

Bangor Temperature Yesterday

Maximum temperature yesterday: 51 °F (at 5:00 pm)
Minimum temperature yesterday: 39 °F (at 12:00 am)
Average temperature yesterday: 47 °F

High & Low Weather Summary for the Past Weeks

 TemperatureHumidityPressure
High53 °F (Dec 7, 1:00 pm)100% (Dec 1, 5:00 am)30.62 "Hg (Dec 1, 5:00 am)
Low21 °F (Nov 29, 9:00 am)63% (Nov 26, 3:00 pm)29.62 "Hg (Nov 22, 2:00 pm)
Average38 °F88%30.32 "Hg
* Reported Nov 22 2:00 pm — Dec 7 2:00 pm, Bangor, Weather by CustomWeather, © 2016

Note: Actual official high and low records may vary slightly from our data, if they occured in-between our weather recording intervals... More about our weather records

Advertising

Bangor Weather History for the Previous 24 Hours

Scroll right to see more
 ConditionsComfort  
Time TempWeatherWind HumidityBarometerVisibility
2:00 pm
Wed, Dec 7
53 °FLight rain. Cloudy.26 mph96%30.08 "Hg3 mi
1:00 pm53 °FCool.33 mph94%30.07 "Hg9 mi
12:00 pm52 °FDrizzle. Cloudy.29 mph97%30.10 "Hg4 mi
11:00 am52 °FRain showers. Cloudy.26 mph97%30.11 "Hg2 mi
10:00 am52 °FCool.30 mph98%30.11 "Hg6 mi
9:00 am52 °FDrizzle. Cloudy.31 mph96%30.10 "Hg1 mi
8:00 am52 °FCool.33 mph91%30.07 "Hg12 mi
7:00 am52 °FSmoke.31 mph94%30.09 "Hg2 mi
6:00 am53 °FCool.31 mph87%30.08 "Hg11 mi
5:00 am52 °FCool.28 mph86%30.09 "Hg11 mi
4:00 am52 °FCool.32 mph85%30.09 "Hg13 mi
3:00 am53 °FCool.29 mph84%30.13 "Hg22 mi
2:00 am53 °FCool.29 mph83%30.14 "Hg15 mi
1:00 am52 °FCool.35 mph85%30.14 "Hg18 mi
12:00 am52 °FCool.30 mph86%30.15 "Hg16 mi
5:00 pm
Tue, Dec 6
51 °FCool.17 mph86%30.19 "Hg22 mi
4:00 pm51 °FCool.13 mph88%30.20 "Hg12 mi
Weather by CustomWeather, © 2016

See weather overviewHow to use our weather pages